Time,TemperatureF,DewpointF,PressureIn,WindDirection,WindDirectionDegrees,WindSpeedMPH,WindSpeedGustMPH,Humidity,HourlyPrecipIn,Conditions,Clouds,dailyrainin,SoftwareType,DateUTC
2013-11-07 00:00:00,28.8,24.0,30.17,WNW,288,1.0,2.0,82,0.00,,,0.09,VWS V14.01,2013-11-07 06:00:00,
2013-11-07 00:01:00,28.8,24.0,30.17,WNW,288,1.0,2.0,82,0.00,,,0.09,VWS V14.01,2013-11-07 06:01:00,
2013-11-07 00:06:00,28.8,23.7,30.17,WNW,288,0.0,2.0,81,0.00,,,0.00,VWS V14.01,2013-11-07 06:06:00,
2013-11-07 00:11:00,29.0,23.6,30.17,WNW,288,0.0,2.0,80,0.00,,,0.00,VWS V14.01,2013-11-07 06:11:00,
2013-11-07 00:16:00,29.1,23.4,30.17,WNW,288,0.0,2.0,79,0.00,,,0.00,VWS V14.01,2013-11-07 06:16:00,
2013-11-07 00:30:00,29.3,23.3,30.17,WNW,288,0.0,2.0,78,0.00,,,0.00,VWS V14.01,2013-11-07 06:30:00,
2013-11-07 01:00:00,29.6,22.7,30.17,WNW,289,1.0,2.0,75,0.00,,,0.00,VWS V14.01,2013-11-07 07:00:00,
2013-11-07 01:30:00,28.2,22.2,30.17,WNW,289,0.0,1.0,78,0.00,,,0.00,VWS V14.01,2013-11-07 07:30:00,
2013-11-07 02:00:00,25.5,21.9,30.17,WNW,289,1.0,1.0,86,0.00,,,0.00,VWS V14.01,2013-11-07 08:00:00,
2013-11-07 02:30:00,24.8,21.5,30.17,WNW,289,0.0,2.0,87,0.00,,,0.00,VWS V14.01,2013-11-07 08:30:00,
2013-11-07 02:54:00,23.9,21.4,30.17,WNW,289,0.0,1.0,90,0.00,,,0.00,VWS V14.01,2013-11-07 08:54:00,
2013-11-07 02:59:00,23.7,21.2,30.17,WNW,289,0.0,1.0,90,0.00,,,0.00,VWS V14.01,2013-11-07 08:59:00,
2013-11-07 03:00:00,23.6,21.1,30.17,WNW,289,0.0,1.0,90,0.00,,,0.00,VWS V14.01,2013-11-07 09:00:00,
2013-11-07 03:04:00,23.5,21.0,30.17,WNW,288,0.0,1.0,90,0.00,,,0.00,VWS V14.01,2013-11-07 09:04:00,
2013-11-07 03:09:00,23.7,21.2,30.17,WNW,298,0.0,1.0,90,0.01,,,0.01,VWS V14.01,2013-11-07 09:09:00,
2013-11-07 03:14:00,23.6,21.1,30.17,WNW,298,0.0,1.0,90,0.01,,,0.01,VWS V14.01,2013-11-07 09:14:00,
2013-11-07 03:19:00,23.3,21.1,30.17,WNW,298,0.0,1.0,91,0.01,,,0.01,VWS V14.01,2013-11-07 09:19:00,
2013-11-07 03:24:00,23.3,21.1,30.17,WNW,298,0.0,1.0,91,0.01,,,0.01,VWS V14.01,2013-11-07 09:24:00,
2013-11-07 03:29:00,22.8,20.6,30.17,WNW,298,1.0,1.0,91,0.01,,,0.01,VWS V14.01,2013-11-07 09:29:00,
2013-11-07 03:30:00,22.6,20.4,30.17,WNW,298,1.0,1.0,91,0.01,,,0.01,VWS V14.01,2013-11-07 09:30:00,
2013-11-07 03:33:00,22.4,20.4,30.17,WNW,298,1.0,1.0,92,0.01,,,0.01,VWS V14.01,2013-11-07 09:33:00,
2013-11-07 03:38:00,22.6,20.6,30.18,WNW,298,1.0,1.0,92,0.01,,,0.01,VWS V14.01,2013-11-07 09:38:00,
2013-11-07 04:00:00,22.3,20.3,30.18,WNW,298,0.0,1.0,92,0.01,,,0.01,VWS V14.01,2013-11-07 10:00:00,
2013-11-07 04:30:00,21.0,19.3,30.19,WNW,298,1.0,3.0,93,0.01,,,0.01,VWS V14.01,2013-11-07 10:30:00,
2013-11-07 05:00:00,20.4,18.7,30.18,SW,215,0.0,3.0,93,0.00,,,0.01,VWS V14.01,2013-11-07 11:00:00,
2013-11-07 05:30:00,21.5,19.8,30.19,SW,215,0.0,1.0,93,0.00,,,0.01,VWS V14.01,2013-11-07 11:30:00,
2013-11-07 06:00:00,23.6,21.9,30.19,SW,215,0.0,2.0,93,0.00,,,0.01,VWS V14.01,2013-11-07 12:00:00,
2013-11-07 06:30:00,24.9,22.6,30.19,SW,215,0.0,2.0,91,0.00,,,0.01,VWS V14.01,2013-11-07 12:30:00,
2013-11-07 07:00:00,26.6,23.8,30.20,NW,311,2.0,3.0,89,0.00,,,0.01,VWS V14.01,2013-11-07 13:00:00,
2013-11-07 07:30:00,26.6,23.5,30.21,NW,311,1.0,3.0,88,0.00,,,0.01,VWS V14.01,2013-11-07 13:30:00,
2013-11-07 08:00:00,27.4,24.0,30.21,NW,311,1.0,2.0,87,0.00,,,0.01,VWS V14.01,2013-11-07 14:00:00,
2013-11-07 08:30:00,28.3,24.4,30.22,NW,311,0.0,3.0,85,0.00,,,0.01,VWS V14.01,2013-11-07 14:30:00,
2013-11-07 09:00:00,29.3,25.4,30.22,NW,311,2.0,3.0,85,0.00,,,0.01,VWS V14.01,2013-11-07 15:00:00,
2013-11-07 09:30:00,30.1,26.1,30.22,NW,312,1.0,3.0,85,0.00,,,0.01,VWS V14.01,2013-11-07 15:30:00,
2013-11-07 09:51:00,30.7,25.6,30.22,WNW,301,4.0,4.0,81,0.00,,,0.01,VWS V14.01,2013-11-07 15:51:00,
2013-11-07 10:00:00,31.0,25.9,30.23,WNW,300,3.0,4.0,81,0.00,,,0.01,VWS V14.01,2013-11-07 16:00:00,
2013-11-07 10:30:00,32.8,26.7,30.23,West,278,4.0,7.0,78,0.00,,,0.01,VWS V14.01,2013-11-07 16:30:00,
2013-11-07 11:00:00,33.9,25.8,30.23,West,267,6.0,10.0,72,0.00,,,0.01,VWS V14.01,2013-11-07 17:00:00,
2013-11-07 11:30:00,34.2,26.1,30.23,WSW,254,5.0,10.0,72,0.00,,,0.01,VWS V14.01,2013-11-07 17:30:00,
2013-11-07 12:00:00,37.1,26.8,30.21,WNW,282,4.0,9.0,66,0.00,,,0.01,VWS V14.01,2013-11-07 18:00:00,
2013-11-07 12:30:00,36.2,26.7,30.20,NW,317,3.0,10.0,68,0.00,,,0.01,VWS V14.01,2013-11-07 18:30:00,
2013-11-07 13:00:00,37.8,24.4,30.19,West,271,4.0,12.0,58,0.00,,,0.01,VWS V14.01,2013-11-07 19:00:00,
2013-11-07 13:30:00,36.3,23.0,30.19,NW,320,11.0,15.0,58,0.00,,,0.01,VWS V14.01,2013-11-07 19:30:00,
2013-11-07 14:00:00,38.7,22.6,30.19,NW,311,6.0,15.0,52,0.00,,,0.01,VWS V14.01,2013-11-07 20:00:00,
2013-11-07 14:30:00,38.6,23.8,30.19,WNW,288,7.0,16.0,55,0.00,,,0.01,VWS V14.01,2013-11-07 20:30:00,
2013-11-07 14:46:00,37.5,23.2,30.19,NW,311,5.0,12.0,56,0.00,,,0.01,VWS V14.01,2013-11-07 20:46:00,
2013-11-07 14:51:00,36.7,23.3,30.19,WNW,291,5.0,12.0,58,0.00,,,0.01,VWS V14.01,2013-11-07 20:51:00,
2013-11-07 14:56:00,36.4,23.5,30.18,WNW,300,3.0,12.0,59,0.00,,,0.01,VWS V14.01,2013-11-07 20:56:00,
2013-11-07 15:00:00,36.2,23.7,30.18,WNW,295,4.0,12.0,60,0.00,,,0.01,VWS V14.01,2013-11-07 21:00:00,
2013-11-07 15:30:00,37.4,24.4,30.18,NW,324,2.0,9.0,59,0.00,,,0.01,VWS V14.01,2013-11-07 21:30:00,
2013-11-07 16:00:00,36.6,24.4,30.18,West,280,1.0,7.0,61,0.00,,,0.01,VWS V14.01,2013-11-07 22:00:00,
2013-11-07 16:16:00,35.7,24.0,30.18,WNW,302,3.0,5.0,62,0.00,,,0.01,VWS V14.01,2013-11-07 22:16:00,
2013-11-07 16:25:00,35.3,24.4,30.19,WNW,293,1.0,1.0,64,0.00,,,0.01,VWS V14.01,2013-11-07 22:25:00,
2013-11-07 16:30:00,34.9,24.3,30.19,WNW,293,0.0,2.0,65,0.00,,,0.01,VWS V14.01,2013-11-07 22:30:00,
2013-11-07 16:35:00,34.8,24.2,30.19,West,274,4.0,5.0,65,0.00,,,0.01,VWS V14.01,2013-11-07 22:35:00,
2013-11-07 16:40:00,34.7,24.5,30.19,West,281,2.0,5.0,66,0.00,,,0.01,VWS V14.01,2013-11-07 22:40:00,
2013-11-07 16:45:00,35.0,24.4,30.19,WNW,285,2.0,6.0,65,0.00,,,0.01,VWS V14.01,2013-11-07 22:45:00,
2013-11-07 16:50:00,34.9,24.3,30.19,West,275,2.0,6.0,65,0.00,,,0.01,VWS V14.01,2013-11-07 22:50:00,
2013-11-07 16:55:00,34.5,24.3,30.19,WNW,300,2.0,7.0,66,0.00,,,0.01,VWS V14.01,2013-11-07 22:55:00,
2013-11-07 17:00:00,34.2,24.4,30.19,West,273,3.0,7.0,67,0.00,,,0.01,VWS V14.01,2013-11-07 23:00:00,
2013-11-07 17:05:00,34.1,24.3,30.19,West,270,2.0,6.0,67,0.00,,,0.01,VWS V14.01,2013-11-07 23:05:00,
2013-11-07 17:10:00,33.9,24.1,30.19,West,265,2.0,6.0,67,0.00,,,0.01,VWS V14.01,2013-11-07 23:10:00,
2013-11-07 17:15:00,33.6,24.2,30.19,West,266,1.0,6.0,68,0.00,,,0.01,VWS V14.01,2013-11-07 23:15:00,
2013-11-07 17:20:00,33.3,23.9,30.19,West,266,1.0,6.0,68,0.00,,,0.01,VWS V14.01,2013-11-07 23:20:00,
2013-11-07 17:25:00,32.9,23.9,30.19,West,266,1.0,6.0,69,0.00,,,0.01,VWS V14.01,2013-11-07 23:25:00,
2013-11-07 17:30:00,32.4,23.7,30.19,West,266,1.0,6.0,70,0.00,,,0.01,VWS V14.01,2013-11-07 23:30:00,
2013-11-07 17:35:00,32.2,23.5,30.19,West,266,1.0,2.0,70,0.00,,,0.01,VWS V14.01,2013-11-07 23:35:00,
2013-11-07 17:40:00,32.0,23.7,30.19,West,266,0.0,2.0,71,0.00,,,0.01,VWS V14.01,2013-11-07 23:40:00,
2013-11-07 17:45:00,31.7,23.7,30.20,West,266,1.0,2.0,72,0.00,,,0.01,VWS V14.01,2013-11-07 23:45:00,
2013-11-07 17:50:00,31.5,23.5,30.20,West,266,2.0,2.0,72,0.00,,,0.01,VWS V14.01,2013-11-07 23:50:00,
2013-11-07 17:55:00,31.5,23.5,30.20,West,266,2.0,2.0,72,0.00,,,0.01,VWS V14.01,2013-11-07 23:55:00,
2013-11-07 18:00:00,31.6,23.6,30.20,SW,235,1.0,4.0,72,0.00,,,0.01,VWS V14.01,2013-11-08 00:00:00,
2013-11-07 18:05:00,31.4,23.8,30.20,SW,236,2.0,2.0,73,0.00,,,0.01,VWS V14.01,2013-11-08 00:05:00,
2013-11-07 18:10:00,31.6,23.6,30.20,West,276,2.0,4.0,72,0.00,,,0.01,VWS V14.01,2013-11-08 00:10:00,
2013-11-07 18:15:00,31.6,23.6,30.20,West,276,1.0,4.0,72,0.00,,,0.01,VWS V14.01,2013-11-08 00:15:00,
2013-11-07 18:20:00,31.5,23.5,30.20,West,276,3.0,4.0,72,0.00,,,0.01,VWS V14.01,2013-11-08 00:20:00,
2013-11-07 18:25:00,31.5,23.5,30.20,West,262,1.0,4.0,72,0.00,,,0.01,VWS V14.01,2013-11-08 00:25:00,
2013-11-07 18:30:00,31.4,23.4,30.20,West,262,1.0,4.0,72,0.00,,,0.01,VWS V14.01,2013-11-08 00:30:00,
2013-11-07 18:35:00,31.2,23.6,30.20,West,271,2.0,3.0,73,0.00,,,0.01,VWS V14.01,2013-11-08 00:35:00,
2013-11-07 18:40:00,31.0,23.4,30.20,West,271,1.0,3.0,73,0.00,,,0.01,VWS V14.01,2013-11-08 00:40:00,
2013-11-07 18:45:00,30.8,23.2,30.20,West,271,1.0,3.0,73,0.00,,,0.01,VWS V14.01,2013-11-08 00:45:00,
2013-11-07 18:50:00,30.5,23.2,30.20,West,271,1.0,3.0,74,0.00,,,0.01,VWS V14.01,2013-11-08 00:50:00,
2013-11-07 18:55:00,30.3,23.0,30.20,West,271,1.0,3.0,74,0.00,,,0.01,VWS V14.01,2013-11-08 00:55:00,
2013-11-07 19:00:00,29.9,23.0,30.20,West,271,1.0,3.0,75,0.00,,,0.01,VWS V14.01,2013-11-08 01:00:00,
2013-11-07 19:05:00,29.8,22.9,30.20,West,271,1.0,2.0,75,0.00,,,0.01,VWS V14.01,2013-11-08 01:05:00,
2013-11-07 19:10:00,29.8,22.9,30.20,West,271,0.0,2.0,75,0.00,,,0.01,VWS V14.01,2013-11-08 01:10:00,
2013-11-07 19:15:00,29.8,22.9,30.20,West,271,0.0,2.0,75,0.00,,,0.01,VWS V14.01,2013-11-08 01:15:00,
2013-11-07 19:20:00,29.5,22.9,30.20,West,271,1.0,2.0,76,0.00,,,0.01,VWS V14.01,2013-11-08 01:20:00,
2013-11-07 19:25:00,29.5,22.9,30.20,West,271,0.0,2.0,76,0.00,,,0.01,VWS V14.01,2013-11-08 01:25:00,
2013-11-07 19:30:00,29.3,22.7,30.20,West,271,1.0,2.0,76,0.00,,,0.01,VWS V14.01,2013-11-08 01:30:00,
2013-11-07 19:31:00,29.3,22.7,30.20,West,271,1.0,1.0,76,0.00,,,0.01,VWS V14.01,2013-11-08 01:31:00,
2013-11-07 19:36:00,29.1,22.8,30.20,West,271,1.0,2.0,77,0.00,,,0.01,VWS V14.01,2013-11-08 01:36:00,
2013-11-07 19:41:00,29.0,23.0,30.20,West,271,1.0,2.0,78,0.00,,,0.01,VWS V14.01,2013-11-08 01:41:00,
2013-11-07 19:46:00,29.1,23.1,30.20,West,271,2.0,2.0,78,0.00,,,0.01,VWS V14.01,2013-11-08 01:46:00,
2013-11-07 19:51:00,29.2,23.2,30.20,West,271,1.0,2.0,78,0.00,,,0.01,VWS V14.01,2013-11-08 01:51:00,
2013-11-07 19:56:00,28.9,22.9,30.20,West,271,2.0,3.0,78,0.00,,,0.01,VWS V14.01,2013-11-08 01:56:00,
2013-11-07 20:00:00,28.7,22.7,30.20,West,271,1.0,3.0,78,0.00,,,0.01,VWS V14.01,2013-11-08 02:00:00,
2013-11-07 20:01:00,28.7,22.7,30.20,West,271,1.0,2.0,78,0.00,,,0.01,VWS V14.01,2013-11-08 02:01:00,
2013-11-07 20:06:00,28.8,22.8,30.20,West,271,1.0,2.0,78,0.00,,,0.01,VWS V14.01,2013-11-08 02:06:00,
2013-11-07 20:11:00,28.8,22.8,30.20,West,271,2.0,2.0,78,0.00,,,0.01,VWS V14.01,2013-11-08 02:11:00,
2013-11-07 20:16:00,28.7,23.0,30.20,West,271,1.0,2.0,79,0.00,,,0.01,VWS V14.01,2013-11-08 02:16:00,
2013-11-07 20:21:00,28.6,22.9,30.20,West,271,1.0,2.0,79,0.00,,,0.01,VWS V14.01,2013-11-08 02:21:00,
2013-11-07 20:26:00,28.7,23.0,30.20,West,271,2.0,2.0,79,0.00,,,0.01,VWS V14.01,2013-11-08 02:26:00,
2013-11-07 20:30:00,28.4,23.0,30.20,West,271,1.0,2.0,80,0.00,,,0.01,VWS V14.01,2013-11-08 02:30:00,
2013-11-07 20:31:00,28.4,23.0,30.20,West,271,0.0,1.0,80,0.00,,,0.01,VWS V14.01,2013-11-08 02:31:00,
2013-11-07 20:36:00,28.2,23.1,30.20,West,271,1.0,1.0,81,0.00,,,0.01,VWS V14.01,2013-11-08 02:36:00,
2013-11-07 20:41:00,28.4,23.0,30.20,West,271,1.0,1.0,80,0.00,,,0.01,VWS V14.01,2013-11-08 02:41:00,
2013-11-07 20:46:00,28.4,23.0,30.20,West,271,1.0,1.0,80,0.00,,,0.01,VWS V14.01,2013-11-08 02:46:00,
2013-11-07 20:51:00,28.7,23.3,30.20,West,271,0.0,1.0,80,0.00,,,0.01,VWS V14.01,2013-11-08 02:51:00,
2013-11-07 20:56:00,28.4,23.0,30.20,West,271,0.0,1.0,80,0.00,,,0.01,VWS V14.01,2013-11-08 02:56:00,
2013-11-07 21:00:00,27.5,22.5,30.20,West,271,0.0,1.0,81,0.00,,,0.01,VWS V14.01,2013-11-08 03:00:00,
2013-11-07 21:01:00,27.4,22.4,30.20,West,271,0.0,0.0,81,0.00,,,0.01,VWS V14.01,2013-11-08 03:01:00,
2013-11-07 21:06:00,27.0,22.5,30.20,West,271,0.0,0.0,83,0.00,,,0.01,VWS V14.01,2013-11-08 03:06:00,
2013-11-07 21:11:00,27.0,22.5,30.20,West,271,0.0,0.0,83,0.00,,,0.01,VWS V14.01,2013-11-08 03:11:00,
2013-11-07 21:16:00,26.5,22.3,30.20,West,271,0.0,0.0,84,0.00,,,0.01,VWS V14.01,2013-11-08 03:16:00,
2013-11-07 21:21:00,26.3,22.4,30.20,West,271,0.0,0.0,85,0.00,,,0.01,VWS V14.01,2013-11-08 03:21:00,
2013-11-07 21:26:00,26.4,22.8,30.20,West,271,0.0,0.0,86,0.00,,,0.01,VWS V14.01,2013-11-08 03:26:00,
2013-11-07 21:30:00,26.4,23.1,30.20,West,271,0.0,0.0,87,0.00,,,0.01,VWS V14.01,2013-11-08 03:30:00,
2013-11-07 21:31:00,26.4,23.1,30.20,West,271,0.0,0.0,87,0.00,,,0.01,VWS V14.01,2013-11-08 03:31:00,
2013-11-07 21:36:00,25.9,22.0,30.20,West,271,0.0,0.0,85,0.00,,,0.01,VWS V14.01,2013-11-08 03:36:00,
2013-11-07 21:41:00,25.2,21.9,30.21,West,271,0.0,0.0,87,0.00,,,0.01,VWS V14.01,2013-11-08 03:41:00,
2013-11-07 21:46:00,25.0,22.0,30.21,West,271,0.0,0.0,88,0.00,,,0.01,VWS V14.01,2013-11-08 03:46:00,
2013-11-07 21:51:00,24.7,21.9,30.21,West,271,0.0,0.0,89,0.00,,,0.01,VWS V14.01,2013-11-08 03:51:00,
2013-11-07 21:56:00,24.8,22.3,30.21,West,271,0.0,0.0,90,0.00,,,0.01,VWS V14.01,2013-11-08 03:56:00,
2013-11-07 22:00:00,25.0,22.5,30.20,West,271,0.0,0.0,90,0.00,,,0.01,VWS V14.01,2013-11-08 04:00:00,
2013-11-07 22:01:00,25.0,22.5,30.21,West,271,0.0,0.0,90,0.00,,,0.01,VWS V14.01,2013-11-08 04:01:00,
2013-11-07 22:06:00,25.1,22.6,30.20,West,271,0.0,0.0,90,0.00,,,0.01,VWS V14.01,2013-11-08 04:06:00,
2013-11-07 22:11:00,25.2,22.7,30.20,West,271,0.0,0.0,90,0.00,,,0.01,VWS V14.01,2013-11-08 04:11:00,
2013-11-07 22:16:00,24.7,22.2,30.20,West,271,0.0,0.0,90,0.00,,,0.01,VWS V14.01,2013-11-08 04:16:00,
2013-11-07 22:21:00,24.2,21.7,30.20,West,271,0.0,0.0,90,0.00,,,0.01,VWS V14.01,2013-11-08 04:21:00,
2013-11-07 22:26:00,24.2,21.7,30.20,West,271,0.0,0.0,90,0.00,,,0.01,VWS V14.01,2013-11-08 04:26:00,
2013-11-07 22:30:00,24.4,21.9,30.20,West,271,0.0,0.0,90,0.00,,,0.01,VWS V14.01,2013-11-08 04:30:00,
2013-11-07 22:31:00,24.5,22.0,30.20,West,271,0.0,0.0,90,0.00,,,0.01,VWS V14.01,2013-11-08 04:31:00,
2013-11-07 22:36:00,24.5,22.0,30.20,West,271,0.0,0.0,90,0.00,,,0.01,VWS V14.01,2013-11-08 04:36:00,
2013-11-07 22:41:00,23.9,21.4,30.20,West,271,0.0,0.0,90,0.00,,,0.01,VWS V14.01,2013-11-08 04:41:00,
2013-11-07 22:46:00,23.3,20.8,30.20,West,271,0.0,0.0,90,0.00,,,0.01,VWS V14.01,2013-11-08 04:46:00,
2013-11-07 22:51:00,22.9,20.7,30.20,West,271,0.0,0.0,91,0.00,,,0.01,VWS V14.01,2013-11-08 04:51:00,
2013-11-07 22:56:00,22.6,20.4,30.20,West,271,0.0,0.0,91,0.00,,,0.01,VWS V14.01,2013-11-08 04:56:00,
2013-11-07 23:00:00,22.6,20.6,30.19,West,271,0.0,0.0,92,0.00,,,0.01,VWS V14.01,2013-11-08 05:00:00,
2013-11-07 23:01:00,22.6,20.6,30.19,West,271,0.0,0.0,92,0.00,,,0.01,VWS V14.01,2013-11-08 05:01:00,
2013-11-07 23:06:00,22.6,20.6,30.19,West,271,0.0,0.0,92,0.00,,,0.01,VWS V14.01,2013-11-08 05:06:00,
2013-11-07 23:11:00,22.8,20.8,30.19,West,271,0.0,0.0,92,0.00,,,0.01,VWS V14.01,2013-11-08 05:11:00,
2013-11-07 23:16:00,23.3,21.3,30.19,West,271,0.0,0.0,92,0.00,,,0.01,VWS V14.01,2013-11-08 05:16:00,
2013-11-07 23:21:00,23.1,21.1,30.20,West,271,0.0,0.0,92,0.00,,,0.01,VWS V14.01,2013-11-08 05:21:00,
2013-11-07 23:26:00,23.1,21.1,30.19,West,271,0.0,0.0,92,0.00,,,0.01,VWS V14.01,2013-11-08 05:26:00,
2013-11-07 23:30:00,23.1,21.4,30.20,West,271,0.0,0.0,93,0.00,,,0.01,VWS V14.01,2013-11-08 05:30:00,
2013-11-07 23:31:00,23.1,21.4,30.20,West,271,0.0,0.0,93,0.00,,,0.01,VWS V14.01,2013-11-08 05:31:00,
2013-11-07 23:36:00,23.0,21.3,30.20,West,271,0.0,0.0,93,0.00,,,0.01,VWS V14.01,2013-11-08 05:36:00,
2013-11-07 23:41:00,23.0,21.3,30.20,West,271,0.0,0.0,93,0.00,,,0.01,VWS V14.01,2013-11-08 05:41:00,
2013-11-07 23:46:00,22.8,21.1,30.20,West,271,0.0,0.0,93,0.00,,,0.01,VWS V14.01,2013-11-08 05:46:00,
2013-11-07 23:51:00,22.8,21.1,30.20,West,271,1.0,2.0,93,0.00,,,0.01,VWS V14.01,2013-11-08 05:51:00,
2013-11-07 23:56:00,23.4,21.2,30.20,West,271,0.0,2.0,91,0.00,,,0.01,VWS V14.01,2013-11-08 05:56:00,